| time (UTC) | temp C | wind direction | speed KPH | gust KPH | rain 1hr cm | rain 24hr cm | rain mn cm | humidity % | barometer mb |
| 20260506002910 | 15 | 250 | 0.0 | 0.0 | 0.00 | 0.00 | 0.00 | 78 | 1006.6 |
| 20260506002410 | 15 | 115 | 0.0 | 0.0 | 0.00 | 0.00 | 0.00 | 78 | 1006.4 |
| 20260506001909 | 15 | 108 | 0.0 | 0.0 | 0.00 | 0.00 | 0.00 | 78 | 1006.2 |
| 20260506001410 | 15 | 92 | 0.0 | 0.0 | 0.00 | 0.00 | 0.00 | 78 | 1006.5 |
| 20260506000910 | 15 | 255 | 0.0 | 0.0 | 0.00 | 0.00 | 0.00 | 78 | 1006.7 |
| 20260506000410 | 15 | 255 | 0.0 | 0.0 | 0.00 | 0.00 | 0.00 | 78 | 1006.6 |
| 20260505235914 | 15 | 257 | 0.0 | 0.0 | 0.00 | 0.00 | 0.00 | 78 | 1006.9 |
| 20260505235910 | 15 | 255 | 0.0 | 0.0 | 0.00 | 0.00 | 0.00 | 78 | 1006.8 |
| 20260505235514 | 15 | 248 | 0.0 | 0.0 | 0.00 | 0.00 | 0.00 | 78 | 1006.9 |
| 20260505235012 | 15 | 276 | 0.0 | 0.0 | 0.00 | 0.00 | 0.00 | 77 | 1006.8 |
| 20260505233912 | 15 | 206 | 0.0 | 3.2 | 0.00 | 0.00 | 0.00 | 77 | 1006.7 |
| 20260505233908 | 15 | 244 | 0.0 | 3.2 | 0.00 | 0.00 | 0.00 | 77 | 1006.7 |
| 20260505232908 | 15 | 242 | 1.6 | 9.7 | 0.00 | 0.00 | 0.00 | 77 | 1006.5 |
| 20260505232411 | 15 | 270 | 0.0 | 8.0 | 0.00 | 0.00 | 0.00 | 78 | 1006.3 |
| 20260505232407 | 15 | 281 | 1.6 | 9.7 | 0.00 | 0.00 | 0.00 | 77 | 1006.7 |
| 20260505231405 | 15 | 90 | 1.6 | 4.8 | 0.00 | 0.00 | 0.00 | 77 | 1005.3 |
| 20260505230905 | 15 | 96 | 0.0 | 3.2 | 0.00 | 0.00 | 0.00 | 77 | 1005.0 |
| 20260505230404 | 15 | 84 | 0.0 | 3.2 | 0.00 | 0.00 | 0.00 | 77 | 1005.1 |
| 20260505225901 | 15 | 255 | 1.6 | 8.0 | 0.00 | 0.00 | 0.00 | 76 | 1004.9 |
| 20260505225402 | 15 | 117 | 1.6 | 8.0 | 0.00 | 0.00 | 0.00 | 76 | 1004.9 |
| 20260505224906 | 15 | 84 | 0.0 | 9.7 | 0.00 | 0.00 | 0.00 | 75 | 1004.5 |
| 20260505224902 | 15 | 175 | 1.6 | 9.7 | 0.00 | 0.00 | 0.00 | 75 | 1004.7 |
| 20260505223906 | 15 | 342 | 1.6 | 4.8 | 0.00 | 0.00 | 0.00 | 75 | 1004.5 |
| 20260505223902 | 15 | 187 | 0.0 | 4.8 | 0.00 | 0.00 | 0.00 | 75 | 1004.6 |
| 20260505222906 | 15 | 266 | 1.6 | 6.4 | 0.00 | 0.00 | 0.00 | 74 | 1004.3 |
| 20260505222902 | 15 | 91 | 1.6 | 6.4 | 0.00 | 0.00 | 0.00 | 75 | 1004.4 |
| 20260505222506 | 16 | 113 | 1.6 | 6.4 | 0.00 | 0.00 | 0.00 | 74 | 1004.3 |
| 20260505221900 | 16 | 245 | 1.6 | 6.4 | 0.00 | 0.00 | 0.00 | 74 | 1004.3 |
| 20260505221358 | 16 | 231 | 1.6 | 14.5 | 0.00 | 0.00 | 0.00 | 73 | 1004.3 |
| 20260505220402 | 16 | 272 | 3.2 | 16.1 | 0.00 | 0.00 | 0.00 | 73 | 1004.2 |
| 20260505220358 | 16 | 231 | 3.2 | 14.5 | 0.00 | 0.00 | 0.00 | 73 | 1004.3 |
| 20260505215355 | 16 | 163 | 3.2 | 16.1 | 0.00 | 0.00 | 0.00 | 72 | 1004.3 |
| 20260505214855 | 16 | 81 | 3.2 | 8.0 | 0.00 | 0.00 | 0.00 | 72 | 1004.3 |
| 20260505214356 | 17 | 259 | 1.6 | 8.0 | 0.00 | 0.00 | 0.00 | 71 | 1004.4 |
| 20260505213853 | 17 | 271 | 0.0 | 6.4 | 0.00 | 0.00 | 0.00 | 70 | 1004.3 |
| 20260505213354 | 17 | 232 | 1.6 | 8.0 | 0.00 | 0.00 | 0.00 | 69 | 1004.2 |
| 20260505212854 | 18 | 252 | 1.6 | 8.0 | 0.00 | 0.00 | 0.00 | 68 | 1004.2 |
| 20260505212357 | 18 | 25 | 0.0 | 0.0 | 0.00 | 0.00 | 0.00 | 69 | 1004.4 |
| 20260505212353 | 18 | 184 | 1.6 | 8.0 | 0.00 | 0.00 | 0.00 | 68 | 1004.3 |
| 20260505211852 | 18 | 69 | 1.6 | 17.7 | 0.00 | 0.00 | 0.00 | 68 | 1004.3 |
| 20260505211351 | 18 | 53 | 1.6 | 17.7 | 0.00 | 0.00 | 0.00 | 68 | 1004.3 |
| 20260505210850 | 18 | 96 | 0.0 | 0.0 | 0.00 | 0.00 | 0.00 | 69 | 1004.3 |
| 20260505205851 | 18 | 124 | 0.0 | 0.0 | 0.00 | 0.00 | 0.00 | 69 | 1004.3 |
| 20260505205847 | 18 | 217 | 0.0 | 0.0 | 0.00 | 0.00 | 0.00 | 70 | 1004.4 |
| 20260505204847 | 18 | 139 | 0.0 | 6.4 | 0.00 | 0.00 | 0.00 | 69 | 1004.1 |
| 20260505204350 | 18 | 110 | 3.2 | 9.7 | 0.00 | 0.00 | 0.00 | 68 | 1004.2 |
| 20260505204346 | 18 | 201 | 1.6 | 6.4 | 0.00 | 0.00 | 0.00 | 69 | 1004.1 |
| 20260505203343 | 18 | 136 | 1.6 | 9.7 | 0.00 | 0.00 | 0.00 | 68 | 1004.1 |
| 20260505202844 | 18 | 200 | 1.6 | 6.4 | 0.00 | 0.00 | 0.00 | 69 | 1004.3 |
| 20260505202343 | 18 | 350 | 3.2 | 8.0 | 0.00 | 0.00 | 0.00 | 69 | 1004.4 |
| 20260505201844 | 18 | 137 | 3.2 | 8.0 | 0.00 | 0.00 | 0.00 | 69 | 1004.3 |
| 20260505201344 | 18 | 213 | 3.2 | 8.0 | 0.00 | 0.00 | 0.00 | 68 | 1004.4 |
| 20260505200843 | 18 | 104 | 1.6 | 8.0 | 0.00 | 0.00 | 0.00 | 67 | 1004.4 |
| 20260505200343 | 18 | 250 | 3.2 | 8.0 | 0.00 | 0.00 | 0.00 | 67 | 1004.5 |
| 20260505195844 | 19 | 103 | 3.2 | 9.7 | 0.00 | 0.00 | 0.00 | 67 | 1004.6 |
| 20260505195344 | 19 | 85 | 3.2 | 16.1 | 0.00 | 0.00 | 0.00 | 66 | 1004.6 |
| 20260505194844 | 19 | 210 | 3.2 | 16.1 | 0.00 | 0.00 | 0.00 | 66 | 1004.6 |
| 20260505194347 | 20 | 212 | 3.2 | 11.3 | 0.00 | 0.00 | 0.00 | 67 | 1004.9 |
| 20260505194343 | 20 | 135 | 1.6 | 11.3 | 0.00 | 0.00 | 0.00 | 65 | 1004.8 |
| 20260505193343 | 19 | 240 | 3.2 | 11.3 | 0.00 | 0.00 | 0.00 | 66 | 1004.8 |
| 20260505192843 | 20 | 142 | 3.2 | 9.7 | 0.00 | 0.00 | 0.00 | 66 | 1005.0 |
| 20260505192343 | 20 | 127 | 1.6 | 9.7 | 0.00 | 0.00 | 0.00 | 65 | 1005.2 |
| 20260505191844 | 20 | 243 | 1.6 | 8.0 | 0.00 | 0.00 | 0.00 | 65 | 1005.3 |
| 20260505191343 | 20 | 132 | 1.6 | 8.0 | 0.00 | 0.00 | 0.00 | 65 | 1005.4 |
| 20260505190843 | 20 | 150 | 0.0 | 8.0 | 0.00 | 0.00 | 0.00 | 65 | 1005.2 |
| 20260505190343 | 20 | 224 | 0.0 | 0.0 | 0.00 | 0.00 | 0.00 | 65 | 1005.3 |
| 20260505185843 | 20 | 133 | 0.0 | 3.2 | 0.00 | 0.00 | 0.00 | 65 | 1005.2 |
| 20260505185340 | 20 | 111 | 1.6 | 9.7 | 0.00 | 0.00 | 0.00 | 65 | 1005.4 |
| 20260505184839 | 20 | 283 | 3.2 | 9.7 | 0.00 | 0.00 | 0.00 | 66 | 1005.4 |
| 20260505184338 | 19 | 210 | 3.2 | 8.0 | 0.00 | 0.00 | 0.00 | 67 | 1005.5 |
| 20260505183835 | 19 | 181 | 1.6 | 6.4 | 0.00 | 0.00 | 0.00 | 68 | 1005.7 |
| 20260505183335 | 18 | 92 | 1.6 | 11.3 | 0.00 | 0.00 | 0.00 | 69 | 1005.6 |
| 20260505182835 | 18 | 136 | 3.2 | 11.3 | 0.00 | 0.00 | 0.00 | 68 | 1005.6 |
| 20260505182335 | 19 | 160 | 1.6 | 8.0 | 0.00 | 0.00 | 0.00 | 66 | 1005.6 |
| 20260505181832 | 20 | 284 | 1.6 | 8.0 | 0.00 | 0.00 | 0.00 | 66 | 1005.6 |
| 20260505181334 | 20 | 200 | 1.6 | 8.0 | 0.00 | 0.00 | 0.00 | 65 | 1005.5 |
| 20260505180833 | 20 | 131 | 3.2 | 8.0 | 0.00 | 0.00 | 0.00 | 65 | 1005.5 |
| 20260505180333 | 20 | 229 | 3.2 | 9.7 | 0.00 | 0.00 | 0.00 | 65 | 1005.4 |
| 20260505175839 | 20 | 108 | 1.6 | 9.7 | 0.00 | 0.00 | 0.00 | 65 | 1005.5 |
| 20260505175333 | 20 | 347 | 3.2 | 8.0 | 0.00 | 0.00 | 0.00 | 65 | 1005.6 |
| 20260505174835 | 20 | 102 | 1.6 | 8.0 | 0.00 | 0.00 | 0.00 | 66 | 1005.8 |
| 20260505174831 | 20 | 215 | 3.2 | 8.0 | 0.00 | 0.00 | 0.00 | 66 | 1005.6 |
| 20260505173831 | 20 | 137 | 1.6 | 6.4 | 0.00 | 0.00 | 0.00 | 66 | 1006.1 |
| 20260505173330 | 19 | 98 | 1.6 | 8.0 | 0.00 | 0.00 | 0.00 | 67 | 1006.1 |
| 20260505172829 | 20 | 124 | 1.6 | 8.0 | 0.00 | 0.00 | 0.00 | 66 | 1006.2 |
| 20260505172329 | 19 | 158 | 1.6 | 6.4 | 0.00 | 0.00 | 0.00 | 67 | 1006.4 |
| 20260505171827 | 19 | 141 | 3.2 | 8.0 | 0.00 | 0.00 | 0.00 | 67 | 1006.2 |
| 20260505171323 | 19 | 156 | 3.2 | 8.0 | 0.00 | 0.00 | 0.00 | 66 | 1006.2 |
| 20260505170830 | 19 | 221 | 3.2 | 9.7 | 0.00 | 0.00 | 0.00 | 66 | 1006.5 |
| 20260505170826 | 19 | 149 | 3.2 | 8.0 | 0.00 | 0.00 | 0.00 | 66 | 1006.4 |
| 20260505165826 | 20 | 90 | 1.6 | 9.7 | 0.00 | 0.00 | 0.00 | 66 | 1006.6 |
| 20260505165322 | 20 | 210 | 1.6 | 9.7 | 0.00 | 0.00 | 0.00 | 67 | 1006.6 |
| 20260505164823 | 19 | 110 | 3.2 | 9.7 | 0.00 | 0.00 | 0.00 | 66 | 1006.6 |
| 20260505164321 | 20 | 119 | 3.2 | 11.3 | 0.00 | 0.00 | 0.00 | 65 | 1006.7 |
| 20260505163822 | 20 | 120 | 3.2 | 11.3 | 0.00 | 0.00 | 0.00 | 65 | 1006.8 |
| 20260505163319 | 20 | 273 | 1.6 | 6.4 | 0.00 | 0.00 | 0.00 | 64 | 1006.7 |
| 20260505162827 | 20 | 214 | 0.0 | 4.8 | 0.00 | 0.00 | 0.00 | 65 | 1006.8 |
| 20260505162319 | 20 | 208 | 1.6 | 8.0 | 0.00 | 0.00 | 0.00 | 65 | 1006.9 |
| 20260505161821 | 19 | 271 | 1.6 | 9.7 | 0.00 | 0.00 | 0.00 | 67 | 1007.0 |
| 20260505161319 | 18 | 103 | 0.0 | 9.7 | 0.00 | 0.00 | 0.00 | 67 | 1007.2 |
| 20260505160821 | 18 | 300 | 0.0 | 0.0 | 0.00 | 0.00 | 0.00 | 70 | 1007.3 |
| 20260505160319 | 18 | 211 | 0.0 | 0.0 | 0.00 | 0.00 | 0.00 | 70 | 1007.3 |
| 20260505153317 | 16 | 297 | 0.0 | 0.0 | 0.00 | 0.00 | 0.00 | 76 | 1008.1 |
| 20260505152823 | 15 | 205 | 0.0 | 1.6 | 0.00 | 0.00 | 0.00 | 77 | 1008.1 |
| 20260505152819 | 15 | 300 | 0.0 | 0.0 | 0.00 | 0.00 | 0.00 | 77 | 1008.2 |
| 20260505151819 | 15 | 278 | 0.0 | 3.2 | 0.00 | 0.00 | 0.00 | 78 | 1008.2 |
| 20260505151321 | 15 | 266 | 0.0 | 0.0 | 0.00 | 0.00 | 0.00 | 76 | 1007.8 |
| 20260505151317 | 15 | 150 | 0.0 | 3.2 | 0.00 | 0.00 | 0.00 | 77 | 1007.8 |
| 20260505150317 | 15 | 200 | 0.0 | 0.0 | 0.00 | 0.00 | 0.00 | 75 | 1007.7 |
| 20260505140301 | 17 | 210 | 1.6 | 8.0 | 0.00 | 0.00 | 0.00 | 69 | 1007.8 |
| 20260505130229 | 16 | 136 | 1.6 | 8.0 | 0.00 | 0.00 | 0.00 | 71 | 1007.7 |
| 20260505124706 | 16 | 106 | 0.0 | 3.2 | 0.00 | 0.00 | 0.00 | 73 | 1007.8 |
| 20260505124207 | 16 | 205 | 0.0 | 0.0 | 0.00 | 0.00 | 0.00 | 73 | 1007.7 |
| 20260505123707 | 15 | 95 | 0.0 | 0.0 | 0.00 | 0.00 | 0.00 | 73 | 1007.8 |
| 20260505123206 | 15 | 208 | 0.0 | 0.0 | 0.00 | 0.00 | 0.00 | 75 | 1007.8 |
| 20260505122705 | 15 | 105 | 0.0 | 0.0 | 0.00 | 0.00 | 0.00 | 75 | 1007.8 |
| 20260505122205 | 14 | 248 | 0.0 | 0.0 | 0.00 | 0.00 | 0.00 | 76 | 1007.8 |
| 20260505121702 | 14 | 112 | 0.0 | 0.0 | 0.00 | 0.00 | 0.00 | 78 | 1007.9 |
| 20260505121204 | 13 | 144 | 0.0 | 0.0 | 0.00 | 0.00 | 0.00 | 77 | 1008.1 |
| 20260505120700 | 13 | 111 | 0.0 | 0.0 | 0.00 | 0.00 | 0.00 | 78 | 1008.1 |
| 20260505120157 | 13 | 206 | 0.0 | 0.0 | 0.00 | 0.00 | 0.00 | 79 | 1008.1 |
| 20260505115656 | 13 | 185 | 0.0 | 0.0 | 0.00 | 0.00 | 0.00 | 79 | 1008.3 |
| 20260505115153 | 13 | 110 | 0.0 | 0.0 | 0.00 | 0.00 | 0.00 | 80 | 1008.3 |
| 20260505115140 | 13 | 124 | 0.0 | 0.0 | 0.00 | 0.00 | 0.00 | 80 | 1008.2 |
| 20260505114102 | 12 | 147 | 0.0 | 0.0 | 0.00 | 0.00 | 0.00 | 81 | 1008.2 |
| 20260505113553 | 12 | 101 | 0.0 | 0.0 | 0.00 | 0.00 | 0.00 | 82 | 1008.3 |
| 20260505113049 | 12 | 153 | 0.0 | 0.0 | 0.00 | 0.00 | 0.00 | 84 | 1008.3 |
| 20260505112512 | 11 | 153 | 0.0 | 0.0 | 0.00 | 0.00 | 0.00 | 84 | 1008.3 |
| 20260505112006 | 11 | 261 | 0.0 | 1.6 | 0.00 | 0.00 | 0.00 | 85 | 1008.3 |
| 20260505111451 | 11 | 278 | 0.0 | 1.6 | 0.00 | 0.00 | 0.00 | 86 | 1008.3 |
| 20260505110945 | 11 | 9 | 0.0 | 0.0 | 0.00 | 0.00 | 0.00 | 87 | 1008.3 |
| 20260505110445 | 9 | 9 | 0.0 | 0.0 | 0.00 | 0.00 | 0.00 | 89 | 1008.2 |
| 20260505110441 | 10 | 9 | 0.0 | 0.0 | 0.00 | 0.00 | 0.00 | 89 | 1008.3 |
| 20260505101800 | 8 | 4 | 0.0 | 0.0 | 0.00 | 0.00 | 0.00 | 90 | 1008.1 |
| 20260505101258 | 8 | 4 | 0.0 | 0.0 | 0.00 | 0.00 | 0.00 | 90 | 1008.0 |
| 20260505100758 | 8 | 4 | 0.0 | 0.0 | 0.00 | 0.00 | 0.00 | 90 | 1007.9 |
| 20260505100258 | 8 | 4 | 0.0 | 0.0 | 0.00 | 0.00 | 0.00 | 91 | 1007.9 |
| 20260505095803 | 8 | 4 | 0.0 | 0.0 | 0.00 | 0.00 | 0.00 | 91 | 1008.0 |
| 20260505095759 | 8 | 4 | 0.0 | 0.0 | 0.00 | 0.00 | 0.00 | 91 | 1008.0 |
| 20260505094759 | 8 | 4 | 0.0 | 0.0 | 0.00 | 0.00 | 0.00 | 91 | 1008.0 |
| 20260505094302 | 7 | 4 | 0.0 | 0.0 | 0.00 | 0.00 | 0.00 | 91 | 1008.0 |
| 20260505094258 | 8 | 4 | 0.0 | 0.0 | 0.00 | 0.00 | 0.00 | 91 | 1008.0 |
| 20260505093253 | 8 | 4 | 0.0 | 0.0 | 0.00 | 0.00 | 0.00 | 91 | 1008.0 |
| 20260505092750 | 8 | 4 | 0.0 | 1.6 | 0.00 | 0.00 | 0.00 | 91 | 1007.9 |
| 20260505092250 | 8 | 4 | 0.0 | 1.6 | 0.00 | 0.00 | 0.00 | 91 | 1008.0 |
| 20260505091748 | 8 | 282 | 0.0 | 0.0 | 0.00 | 0.00 | 0.00 | 91 | 1008.1 |
| 20260505091248 | 8 | 282 | 0.0 | 0.0 | 0.00 | 0.00 | 0.00 | 90 | 1008.0 |
| 20260505090749 | 8 | 281 | 0.0 | 0.0 | 0.00 | 0.00 | 0.00 | 90 | 1008.0 |
| 20260505090246 | 8 | 281 | 0.0 | 0.0 | 0.00 | 0.00 | 0.00 | 90 | 1008.0 |
| 20260505085751 | 8 | 281 | 0.0 | 0.0 | 0.00 | 0.00 | 0.00 | 90 | 1008.1 |
| 20260505085747 | 8 | 281 | 0.0 | 0.0 | 0.00 | 0.00 | 0.00 | 90 | 1008.1 |
| 20260505085244 | 8 | 281 | 0.0 | 0.0 | 0.00 | 0.00 | 0.00 | 90 | 1008.1 |
| 20260505084244 | 8 | 281 | 0.0 | 0.0 | 0.00 | 0.00 | 0.00 | 89 | 1008.1 |
| 20260505083742 | 8 | 281 | 0.0 | 0.0 | 0.00 | 0.00 | 0.00 | 90 | 1008.1 |
| 20260505083240 | 8 | 281 | 0.0 | 0.0 | 0.00 | 0.00 | 0.00 | 89 | 1008.1 |
| 20260505082740 | 8 | 281 | 0.0 | 0.0 | 0.00 | 0.00 | 0.00 | 89 | 1008.1 |
| 20260505082240 | 8 | 282 | 0.0 | 0.0 | 0.00 | 0.00 | 0.00 | 90 | 1008.1 |
| 20260505081741 | 8 | 281 | 0.0 | 0.0 | 0.00 | 0.00 | 0.00 | 90 | 1008.2 |
| 20260505081240 | 8 | 281 | 0.0 | 0.0 | 0.00 | 0.00 | 0.00 | 90 | 1008.2 |
| 20260505080740 | 8 | 281 | 0.0 | 0.0 | 0.00 | 0.00 | 0.00 | 90 | 1008.3 |
| 20260505080240 | 7 | 282 | 0.0 | 0.0 | 0.00 | 0.00 | 0.00 | 90 | 1008.2 |
| 20260505075740 | 8 | 282 | 0.0 | 0.0 | 0.00 | 0.00 | 0.00 | 89 | 1008.2 |
| 20260505075240 | 8 | 281 | 0.0 | 0.0 | 0.00 | 0.00 | 0.00 | 88 | 1008.2 |
| 20260505074744 | 8 | 281 | 0.0 | 0.0 | 0.00 | 0.00 | 0.00 | 89 | 1008.1 |
| 20260505074740 | 8 | 282 | 0.0 | 0.0 | 0.00 | 0.00 | 0.00 | 88 | 1008.2 |
| 20260505073740 | 8 | 282 | 0.0 | 0.0 | 0.00 | 0.00 | 0.00 | 88 | 1008.2 |
| 20260505073240 | 8 | 282 | 0.0 | 0.0 | 0.00 | 0.00 | 0.00 | 87 | 1008.1 |
| 20260505072740 | 8 | 282 | 0.0 | 0.0 | 0.00 | 0.00 | 0.00 | 87 | 1008.1 |
| 20260505072239 | 8 | 282 | 0.0 | 0.0 | 0.00 | 0.00 | 0.00 | 87 | 1008.1 |
| 20260505071740 | 8 | 281 | 0.0 | 0.0 | 0.00 | 0.00 | 0.00 | 86 | 1008.1 |
| 20260505071240 | 8 | 281 | 0.0 | 0.0 | 0.00 | 0.00 | 0.00 | 86 | 1008.1 |
| 20260505070740 | 8 | 281 | 0.0 | 0.0 | 0.00 | 0.00 | 0.00 | 86 | 1008.1 |
| 20260505070240 | 8 | 281 | 0.0 | 0.0 | 0.00 | 0.00 | 0.00 | 85 | 1008.0 |
| 20260505065740 | 9 | 281 | 0.0 | 0.0 | 0.00 | 0.00 | 0.00 | 85 | 1008.0 |
| 20260505065240 | 9 | 281 | 0.0 | 0.0 | 0.00 | 0.00 | 0.00 | 85 | 1008.0 |
| 20260505064740 | 9 | 281 | 0.0 | 0.0 | 0.00 | 0.00 | 0.00 | 84 | 1008.0 |
| 20260505064243 | 9 | 281 | 0.0 | 0.0 | 0.00 | 0.00 | 0.00 | 84 | 1007.9 |
| 20260505064239 | 9 | 281 | 0.0 | 0.0 | 0.00 | 0.00 | 0.00 | 84 | 1007.9 |
| 20260505063240 | 9 | 281 | 0.0 | 0.0 | 0.00 | 0.00 | 0.00 | 84 | 1007.9 |
| 20260505062744 | 9 | 281 | 0.0 | 0.0 | 0.00 | 0.00 | 0.00 | 83 | 1008.0 |
| 20260505062740 | 9 | 282 | 0.0 | 0.0 | 0.00 | 0.00 | 0.00 | 84 | 1008.0 |
| 20260505061739 | 10 | 282 | 0.0 | 0.0 | 0.00 | 0.00 | 0.00 | 83 | 1008.0 |
| 20260505061238 | 9 | 281 | 0.0 | 0.0 | 0.00 | 0.00 | 0.00 | 83 | 1008.0 |
| 20260505060738 | 10 | 281 | 0.0 | 0.0 | 0.00 | 0.00 | 0.00 | 83 | 1008.0 |
| 20260505060238 | 10 | 281 | 0.0 | 0.0 | 0.00 | 0.00 | 0.00 | 83 | 1007.9 |
| 20260505055737 | 10 | 281 | 0.0 | 0.0 | 0.00 | 0.00 | 0.00 | 82 | 1007.8 |
| 20260505055238 | 10 | 281 | 0.0 | 0.0 | 0.00 | 0.00 | 0.00 | 82 | 1007.9 |
| 20260505054738 | 10 | 281 | 0.0 | 1.6 | 0.00 | 0.00 | 0.00 | 82 | 1007.9 |
| 20260505054238 | 10 | 281 | 0.0 | 1.6 | 0.00 | 0.00 | 0.00 | 81 | 1007.9 |
| 20260505053738 | 10 | 216 | 0.0 | 1.6 | 0.00 | 0.00 | 0.00 | 81 | 1007.9 |
| 20260505053238 | 10 | 216 | 0.0 | 0.0 | 0.00 | 0.00 | 0.00 | 80 | 1007.9 |
| 20260505052737 | 10 | 216 | 0.0 | 0.0 | 0.00 | 0.00 | 0.00 | 80 | 1007.9 |
| 20260505052236 | 11 | 216 | 0.0 | 0.0 | 0.00 | 0.00 | 0.00 | 79 | 1007.9 |
| 20260505051735 | 11 | 216 | 0.0 | 0.0 | 0.00 | 0.00 | 0.00 | 79 | 1007.9 |
| 20260505051236 | 11 | 216 | 0.0 | 0.0 | 0.00 | 0.00 | 0.00 | 78 | 1007.8 |
| 20260505050736 | 11 | 216 | 0.0 | 0.0 | 0.00 | 0.00 | 0.00 | 78 | 1007.8 |
| 20260505050236 | 11 | 216 | 0.0 | 0.0 | 0.00 | 0.00 | 0.00 | 78 | 1007.8 |
| 20260505041234 | 12 | 86 | 0.0 | 0.0 | 0.00 | 0.00 | 0.00 | 75 | 1007.2 |
| 20260505040734 | 12 | 87 | 0.0 | 0.0 | 0.00 | 0.00 | 0.00 | 75 | 1007.2 |
| 20260505040234 | 12 | 86 | 0.0 | 0.0 | 0.00 | 0.00 | 0.00 | 75 | 1007.1 |
| 20260505040230 | 11 | 88 | 0.0 | 1.6 | 0.00 | 0.00 | 0.00 | 77 | 1007.1 |
| 20260505035833 | 12 | 86 | 0.0 | 1.6 | 0.00 | 0.00 | 0.00 | 76 | 1007.1 |
| 20260505034728 | 11 | 99 | 0.0 | 1.6 | 0.00 | 0.00 | 0.00 | 78 | 1007.0 |
| 20260505034229 | 11 | 70 | 0.0 | 1.6 | 0.00 | 0.00 | 0.00 | 79 | 1007.1 |
| 20260505033728 | 11 | 357 | 0.0 | 0.0 | 0.00 | 0.00 | 0.00 | 80 | 1007.1 |
| 20260505033228 | 10 | 359 | 0.0 | 0.0 | 0.00 | 0.00 | 0.00 | 81 | 1007.0 |
| 20260505032728 | 10 | 359 | 0.0 | 0.0 | 0.00 | 0.00 | 0.00 | 82 | 1007.0 |
| 20260505032228 | 10 | 359 | 0.0 | 0.0 | 0.00 | 0.00 | 0.00 | 83 | 1007.0 |
| 20260505031728 | 10 | 359 | 0.0 | 0.0 | 0.00 | 0.00 | 0.00 | 85 | 1007.0 |
| 20260505031231 | 8 | 78 | 0.0 | 1.6 | 0.00 | 0.00 | 0.00 | 87 | 1007.1 |
| 20260505031225 | 9 | 5 | 0.0 | 0.0 | 0.00 | 0.00 | 0.00 | 85 | 1007.0 |
| 20260505030726 | 9 | 350 | 0.0 | 0.0 | 0.00 | 0.00 | 0.00 | 87 | 1007.1 |
| 20260505025726 | 8 | 73 | 0.0 | 1.6 | 0.00 | 0.00 | 0.00 | 89 | 1007.1 |
| 20260505025231 | 7 | 102 | 0.0 | 0.0 | 0.00 | 0.00 | 0.00 | 90 | 1007.2 |
| 20260505025226 | 8 | 98 | 0.0 | 0.0 | 0.00 | 0.00 | 0.00 | 90 | 1007.0 |
| 20260505024726 | 8 | 102 | 0.0 | 0.0 | 0.00 | 0.00 | 0.00 | 90 | 1007.2 |
| 20260505023726 | 7 | 250 | 0.0 | 0.0 | 0.00 | 0.00 | 0.00 | 91 | 1007.1 |
| 20260505023226 | 7 | 250 | 0.0 | 0.0 | 0.00 | 0.00 | 0.00 | 91 | 1007.1 |
| 20260505022725 | 7 | 250 | 0.0 | 0.0 | 0.00 | 0.00 | 0.00 | 91 | 1007.1 |
| 20260505022224 | 7 | 250 | 0.0 | 0.0 | 0.00 | 0.00 | 0.00 | 91 | 1007.1 |
| 20260505021724 | 7 | 250 | 0.0 | 0.0 | 0.00 | 0.00 | 0.00 | 91 | 1007.1 |
| 20260505021224 | 7 | 250 | 0.0 | 0.0 | 0.00 | 0.00 | 0.00 | 91 | 1007.0 |
| 20260505020724 | 7 | 250 | 0.0 | 0.0 | 0.00 | 0.00 | 0.00 | 90 | 1007.0 |
| 20260505020224 | 7 | 250 | 0.0 | 0.0 | 0.00 | 0.00 | 0.00 | 90 | 1007.0 |
| 20260505015724 | 7 | 250 | 0.0 | 0.0 | 0.00 | 0.00 | 0.00 | 90 | 1007.0 |
| 20260505015224 | 7 | 250 | 0.0 | 0.0 | 0.00 | 0.00 | 0.00 | 89 | 1007.0 |
| 20260505014728 | 7 | 250 | 0.0 | 0.0 | 0.00 | 0.00 | 0.00 | 89 | 1006.9 |
| 20260505014724 | 7 | 250 | 0.0 | 0.0 | 0.00 | 0.00 | 0.00 | 90 | 1006.9 |
| 20260505013723 | 7 | 250 | 0.0 | 0.0 | 0.00 | 0.00 | 0.00 | 88 | 1006.8 |
| 20260505013226 | 8 | 250 | 0.0 | 0.0 | 0.00 | 0.00 | 0.00 | 87 | 1006.8 |
| 20260505013222 | 8 | 250 | 0.0 | 0.0 | 0.00 | 0.00 | 0.00 | 88 | 1006.8 |
| 20260505012826 | 8 | 250 | 0.0 | 0.0 | 0.00 | 0.00 | 0.00 | 87 | 1006.8 |
| 20260505011722 | 8 | 250 | 0.0 | 0.0 | 0.00 | 0.00 | 0.00 | 87 | 1006.6 |
| 20260505011226 | 8 | 250 | 0.0 | 0.0 | 0.00 | 0.00 | 0.00 | 86 | 1006.5 |
| 20260505011222 | 8 | 250 | 0.0 | 0.0 | 0.00 | 0.00 | 0.00 | 86 | 1006.6 |
| 20260505010826 | 8 | 250 | 0.0 | 0.0 | 0.00 | 0.00 | 0.00 | 85 | 1006.5 |
| 20260505005726 | 9 | 250 | 0.0 | 0.0 | 0.00 | 0.00 | 0.00 | 84 | 1006.4 |
| 20260505005722 | 8 | 250 | 0.0 | 0.0 | 0.00 | 0.00 | 0.00 | 84 | 1006.5 |
| 20260505004725 | 9 | 250 | 0.0 | 0.0 | 0.00 | 0.00 | 0.00 | 83 | 1006.4 |
| 20260505004721 | 9 | 250 | 0.0 | 0.0 | 0.00 | 0.00 | 0.00 | 83 | 1006.4 |
| 20260505003719 | 10 | 250 | 0.0 | 0.0 | 0.00 | 0.00 | 0.00 | 82 | 1006.3 |
| 20260505003218 | 10 | 250 | 0.0 | 0.0 | 0.00 | 0.00 | 0.00 | 81 | 1006.2 |